Regional Weather Roundup
Issued by NWS State College, PA

Home | Current Version | Previous Version | Text Only | Print | Product List | Glossary On
Versions: 1 2 3 4 5 6 7 8 9 10 11 12 13 14 15 16 17 18 19 20 21 22 23 24 25 26 27 28 29 30 31 32 33 34 35 36 37 38 39 40 41 42 43 44 45 46 47 48 49 50
000
ASUS41 KCTP 201703
RWRCTP

REGIONAL WEATHER ROUNDUP
NATIONAL WEATHER SERVICE STATE COLLEGE PA
100 PM EDT MON OCT 20 2014

Note: "fair" indicates few or no clouds below 12,000 feet with no
significant weather and/or obstructions to visibility.

* = STATION THAT DOES NOT REPORT PRECIPITATION /E.G. RAIN...SNOW...ETC/
    THUNDER OR FOG.

PAZ002>004-007>009-013>016-020>023-029>032-201800-
WESTERN PENNSYLVANIA

CITY           SKY/WX    TMP DP  RH WIND       PRES   REMARKS
ERIE           CLOUDY    55  41  59 S16       29.87F
MEADVILLE      CLOUDY    50  41  71 S10G16    29.89F
FRANKLIN*      CLOUDY    50  39  66 S16       29.92F
NEW CASTLE       N/A     54  42  63 VRB7      29.93F
BEAVER COUNTY  CLOUDY    54  41  62 SW9G20    29.93F
BUTLER*        CLOUDY    54  39  58 SW9       29.96F
PITTSBURGH INT CLOUDY    53  40  61 SW12      29.94F
PITTSBURGH     CLOUDY    54  37  52 S12G20    29.94F
INDIANA*       MOSUNNY   52  39  62 SW12      29.99F
LATROBE        CLOUDY    55  43  62 SW15G25   29.99F
WASHINGTON CO* CLOUDY    54  39  58 SW14      29.97F
$$

PAZ004>006-010>012-017>019-024>028-033>037-041-042-045-046-049>053-201800-
CENTRAL PENNSYLVANIA

CITY           SKY/WX    TMP DP  RH WIND       PRES   REMARKS
BRADFORD       CLOUDY    48  37  65 VRB7G18   29.90F
DUBOIS         CLOUDY    51  40  65 SW8G17    29.92F
CLEARFIELD     CLOUDY    51  38  60 SW9       29.94F
JOHNSTOWN      CLOUDY    50  36  58 S8        29.95F
ALTOONA        CLOUDY    54  39  57 S8        29.97F
STATE COLLEGE  PTSUNNY   55  39  54 SW12      29.96F
WILLIAMSPORT   CLOUDY    53  37  54 S9        29.97F
SELINSGROVE    PTSUNNY   56  37  49 S12G20    30.01F
FT INDIANTOWN  CLOUDY    56  42  59 VRB6      30.02F
CAPITAL CITY   MOSUNNY   61  37  41 S10       30.01F
HARRISBURG     PTSUNNY   60  37  42 S12G22    30.01F
YORK           MOSUNNY   60  38  43 S8        30.01F
$$

PAZ038>040-043-044-047-048-054-055-060>062-067>071-201800-
EASTERN PENNSYLVANIA

CITY           SKY/WX    TMP DP  RH WIND       PRES   REMARKS
SCRANTON       CLOUDY    49  33  54 CALM      29.99F
MOUNT POCONO   NOT AVBL
ALLENTOWN      PTSUNNY   54  35  48 SW7       30.05F
QUAKERTOWN*    MOSUNNY   55  37  50 S7        30.06F
READING        MOSUNNY   59  39  47 SW10      30.03F
LANCASTER      PTSUNNY   58  41  53 S9        30.04F
COATESVILLE    PTSUNNY   57  39  51 S8        30.05F
POTTSTOWN      PTSUNNY   57  36  45 SW8       30.06F
BLUE BELL      MOSUNNY   59  41  51 SW6       30.06F
DOYLESTOWN     MOSUNNY   55  37  50 S10       30.05F
WILLOW GROVE   NOT AVBL
NORTH PHILA    MOSUNNY   60  35  39 S8        30.08F
PHILADELPHIA   PTSUNNY   60  36  40 S13       30.06F
$$



USA.gov is the U.S. government's official web portal to all federal, state and local government web resources and services.